Location: Mohawk View
(42.7837°N, 73.7885°W)
Time: 15:12:44
(UTC+00:00)

Okean 3 Rocket - Pass Details

Date: 17 June 2021
Orbit: 616 x 644 km, 82.5° (Epoch: 02 August)

Event Time Altitude Azimuth Distance (km) Brightness Sun altitude
Exits shadow 08:36:47 - 215° (SW) 2,200 5.8 -6.6°
Reaches altitude 10° 08:37:23 10° 218° (SW) 1,982 5.5 -6.5°
Maximum altitude 08:41:23 34° 284° (WNW) 1,014 4.4 -6.0°
Drops below altitude 10° 08:45:25 10° 350° (N) 1,988 6.6 -5.4°
Sets 08:47:49 0° 360° (N) 2,898 7.6 -5.1°
